Volver al catálogo

FREGAT DEB

LostMEO
NORAD 43395·DEBRIS·🇷🇺 Russia

Lanzado Jan 20, 2011 desde Baikonur Cosmodrome

Loading…

Próximos Pases (próximas 24 horas)

TLE

ObsoletoSource: Space-Track

Época: Feb 15, 2026, 04:48 UTC

1 43395U 11001J   26046.20062002 -.00000236  00000-0  00000-0 0  9999
2 43395  10.0563  43.8552 0101231  55.3124   5.9388  1.02850450 52797

Sigue FREGAT DEB en tiempo real con AllMySat

Download on the App Store